EW6987 Weather Reports


time (UTC)temp
C
wind
direction
speed
KPH
gust
KPH
rain 1hr
cm
rain 24hr
cm
rain mn
cm
humidity
%
barometer
mb
20260503224551 16 214 11.3 25.7 0.00 0.00 0.00 42 1016.9
20260503223050 16 224 14.5 32.2 0.00 0.00 0.00 40 1017.0
20260503221556 16 233 11.3 29.0 0.00 0.00 0.00 39 1017.0
20260503220051 17 225 12.9 24.1 0.00 0.00 0.00 39 1017.1
20260503214554 16 227 11.3 30.6 0.00 0.00 0.00 39 1017.2
20260503213046 17 195 8.0 29.0 0.00 0.00 0.00 39 1017.2
20260503211544 17 200 9.7 29.0 0.00 0.00 0.00 41 1017.2
20260503210045 17 197 14.5 37.0 0.00 0.00 0.00 38 1017.3
20260503204541 17 235 12.9 32.2 0.00 0.00 0.00 38 1017.4
20260503203057 17 155 16.1 32.2 0.00 0.00 0.00 39 1017.7
20260503201540 17 202 9.7 27.4 0.00 0.00 0.00 41 1017.7
20260503200038 17 199 11.3 27.4 0.00 0.00 0.00 40 1017.9
20260503194542 17 194 14.5 29.0 0.00 0.00 0.00 37 1018.0
20260503193038 17 228 11.3 38.6 0.00 0.00 0.00 40 1018.2
20260503191540 17 176 14.5 30.6 0.00 0.00 0.00 39 1018.5
20260503190039 17 198 16.1 29.0 0.00 0.00 0.00 39 1018.7
20260503184530 17 237 9.7 32.2 0.00 0.00 0.00 40 1019.0
20260503183029 17 183 14.5 30.6 0.00 0.00 0.00 38 1019.1
20260503181525 16 168 11.3 27.4 0.00 0.00 0.00 41 1019.4
20260503180023 16 153 9.7 37.0 0.00 0.00 0.00 39 1019.7
20260503174521 17 276 9.7 29.0 0.00 0.00 0.00 42 1019.6
20260503173117 16 224 16.1 33.8 0.00 0.00 0.00 43 1019.8
20260503171528 16 209 8.0 27.4 0.00 0.00 0.00 48 1020.1
20260503170110 16 260 6.4 32.2 0.00 0.00 0.00 48 1020.3
20260503081619 5 132 3.2 8.0 0.00 0.08 0.00 77 1022.0
20260503071626 5 192 3.2 11.3 0.00 0.20 0.00 73 1022.0
20260503060119 5 193 1.6 11.3 0.00 0.20 0.00 70 1022.3
20260503054526 5 195 3.2 6.4 0.00 0.20 0.00 72 1022.4
20260503053105 5 191 1.6 6.4 0.00 0.20 0.00 73 1022.5
20260503051521 5 193 1.6 6.4 0.00 0.20 0.00 73 1022.5
20260503050107 5 204 1.6 4.8 0.00 0.20 0.00 73 1022.6
20260503044510 5 224 0.0 4.8 0.00 0.20 0.00 72 1022.6
20260503043051 5 212 0.0 1.6 0.00 0.20 0.00 71 1022.6
20260503041501 5 205 0.0 0.0 0.00 0.20 0.00 68 1022.6
20260503040053 5 205 0.0 0.0 0.00 0.20 0.00 67 1022.7
20260503034539 5 182 0.0 3.2 0.00 0.20 0.20 66 1022.8
20260503033127 6 209 0.0 3.2 0.00 0.20 0.20 65 1022.7
20260503031544 6 207 0.0 3.2 0.00 0.20 0.20 63 1022.8
20260503030127 7 201 1.6 4.8 0.00 0.20 0.20 59 1022.8
20260503024541 7 211 1.6 3.2 0.00 0.20 0.20 58 1022.9
20260503023129 7 232 0.0 4.8 0.00 0.20 0.20 59 1023.0
20260503021545 7 228 0.0 3.2 0.00 0.20 0.20 58 1023.0
20260503020001 7 213 1.6 6.4 0.00 0.20 0.20 57 1022.9
20260503014558 7 232 1.6 6.4 0.00 0.20 0.20 56 1022.9
20260503013012 7 219 1.6 6.4 0.00 0.20 0.20 56 1022.8
20260503011555 7 199 1.6 8.0 0.00 0.20 0.20 58 1022.8
20260503010011 7 230 1.6 6.4 0.00 0.20 0.20 58 1022.7
20260503004601 7 213 0.0 0.0 0.00 0.25 0.20 57 1022.7
20260503003041 7 160 0.0 4.8 0.00 0.25 0.20 54 1022.6
20260503001628 7 203 1.6 4.8 0.00 0.25 0.20 56 1022.6
20260503000040 7 186 0.0 3.2 0.00 0.25 0.20 57 1022.6
20260502234629 7 189 1.6 3.2 0.00 0.25 0.20 56 1022.7
20260502233044 7 236 0.0 3.2 0.00 0.25 0.20 54 1022.6
20260502231511 8 205 1.6 3.2 0.00 0.25 0.20 54 1022.7
20260502230057 8 248 0.0 1.6 0.00 0.25 0.20 52 1022.7